| time (UTC) | temp F | wind direction | speed MPH | gust MPH | rain 1hr in | rain 24hr in | rain mn in | humidity % | barometer mb |
| 20260506090049 | 54 | 0 | 0.0 | 0.0 | 0.01 | 0.01 | 0.01 | 70 | 1007.3 |
| 20260506084554 | 54 | 0 | 0.0 | 0.0 | 0.01 | 0.01 | 0.01 | 68 | 1007.4 |
| 20260506083103 | 54 | 0 | 0.0 | 0.0 | 0.00 | 0.00 | 0.00 | 67 | 1007.9 |
| 20260506081555 | 54 | 0 | 0.0 | 0.0 | 0.00 | 0.00 | 0.00 | 67 | 1008.1 |
| 20260506073048 | 55 | 0 | 0.0 | 0.0 | 0.00 | 0.00 | 0.00 | 66 | 1007.4 |
| 20260506071546 | 55 | 0 | 0.0 | 0.0 | 0.00 | 0.00 | 0.00 | 66 | 1007.4 |
| 20260506061551 | 56 | 0 | 0.0 | 0.0 | 0.00 | 0.00 | 0.00 | 65 | 1008.1 |
| 20260506044552 | 57 | 0 | 0.0 | 1.0 | 0.00 | 0.00 | 0.00 | 67 | 1009.1 |
| 20260506043053 | 58 | 0 | 0.0 | 0.0 | 0.00 | 0.00 | 0.00 | 66 | 1009.0 |
| 20260506041551 | 59 | 0 | 0.0 | 3.0 | 0.00 | 0.00 | 0.00 | 65 | 1009.0 |
| 20260506040101 | 60 | 0 | 0.0 | 6.0 | 0.00 | 0.00 | 0.00 | 64 | 1009.2 |
| 20260506034558 | 60 | 0 | 0.0 | 3.0 | 0.00 | 0.00 | 0.00 | 63 | 1009.2 |
| 20260506033054 | 59 | 57 | 1.0 | 5.0 | 0.00 | 0.00 | 0.00 | 60 | 1009.2 |
| 20260506031558 | 60 | 0 | 0.0 | 1.0 | 0.00 | 0.00 | 0.00 | 56 | 1008.9 |
| 20260506030052 | 61 | 0 | 0.0 | 1.0 | 0.00 | 0.00 | 0.00 | 54 | 1008.6 |
| 20260506024546 | 62 | 65 | 1.0 | 1.0 | 0.00 | 0.00 | 0.00 | 51 | 1008.6 |
| 20260506023048 | 64 | 0 | 0.0 | 0.0 | 0.00 | 0.00 | 0.00 | 48 | 1008.7 |
| 20260506021556 | 66 | 0 | 0.0 | 4.0 | 0.00 | 0.00 | 0.00 | 45 | 1008.6 |
| 20260506020047 | 66 | 0 | 0.0 | 2.0 | 0.00 | 0.00 | 0.00 | 45 | 1008.6 |
| 20260506014548 | 67 | 0 | 0.0 | 2.0 | 0.00 | 0.00 | 0.00 | 43 | 1008.3 |
| 20260506013047 | 67 | 58 | 0.0 | 3.0 | 0.00 | 0.00 | 0.00 | 43 | 1008.5 |
| 20260506011553 | 67 | 0 | 0.0 | 0.0 | 0.00 | 0.00 | 0.00 | 43 | 1008.3 |
| 20260506010048 | 68 | 0 | 0.0 | 0.0 | 0.00 | 0.00 | 0.00 | 41 | 1008.2 |
| 20260506004549 | 70 | 0 | 0.0 | 2.0 | 0.00 | 0.00 | 0.00 | 39 | 1008.1 |
| 20260506003046 | 70 | 0 | 0.0 | 2.0 | 0.00 | 0.00 | 0.00 | 38 | 1007.8 |
| 20260506001550 | 71 | 37 | 1.0 | 4.0 | 0.00 | 0.00 | 0.00 | 36 | 1007.8 |
| 20260506000049 | 71 | 329 | 2.0 | 5.0 | 0.00 | 0.00 | 0.00 | 36 | 1007.8 |
| 20260505234557 | 72 | 187 | 5.0 | 11.0 | 0.00 | 0.00 | 0.00 | 34 | 1007.8 |
| 20260505233105 | 73 | 261 | 4.0 | 8.0 | 0.00 | 0.00 | 0.00 | 33 | 1007.5 |
| 20260505231554 | 73 | 59 | 5.0 | 12.0 | 0.00 | 0.00 | 0.00 | 31 | 1007.3 |
| 20260505230051 | 74 | 224 | 4.0 | 10.0 | 0.00 | 0.00 | 0.00 | 30 | 1007.3 |
| 20260505224551 | 74 | 321 | 6.0 | 17.0 | 0.00 | 0.00 | 0.00 | 30 | 1007.3 |
| 20260505223054 | 74 | 295 | 4.0 | 10.0 | 0.00 | 0.00 | 0.00 | 29 | 1007.0 |
| 20260505221551 | 75 | 311 | 4.0 | 12.0 | 0.00 | 0.00 | 0.00 | 28 | 1006.8 |
| 20260505220047 | 75 | 288 | 7.0 | 20.0 | 0.00 | 0.00 | 0.00 | 27 | 1006.8 |
| 20260505214555 | 76 | 213 | 7.0 | 20.0 | 0.00 | 0.00 | 0.00 | 26 | 1006.6 |
| 20260505213053 | 76 | 260 | 6.0 | 24.0 | 0.00 | 0.00 | 0.00 | 26 | 1006.4 |
| 20260505211551 | 77 | 132 | 4.0 | 16.0 | 0.00 | 0.00 | 0.00 | 28 | 1005.9 |
| 20260505210048 | 76 | 186 | 4.0 | 13.0 | 0.00 | 0.00 | 0.00 | 30 | 1006.0 |
| 20260505204552 | 76 | 136 | 6.0 | 18.0 | 0.00 | 0.00 | 0.00 | 29 | 1006.1 |
| 20260505203050 | 76 | 257 | 7.0 | 19.0 | 0.00 | 0.00 | 0.00 | 29 | 1006.0 |
| 20260505201557 | 76 | 122 | 8.0 | 15.0 | 0.00 | 0.00 | 0.00 | 30 | 1005.9 |
| 20260505200051 | 75 | 245 | 4.0 | 11.0 | 0.00 | 0.00 | 0.00 | 31 | 1006.1 |
| 20260505194606 | 75 | 238 | 7.0 | 20.0 | 0.00 | 0.00 | 0.00 | 30 | 1006.1 |
| 20260505193049 | 75 | 98 | 6.0 | 18.0 | 0.00 | 0.00 | 0.00 | 30 | 1005.9 |
| 20260505191546 | 76 | 195 | 4.0 | 13.0 | 0.00 | 0.00 | 0.00 | 28 | 1005.8 |
| 20260505190051 | 77 | 160 | 6.0 | 17.0 | 0.00 | 0.00 | 0.00 | 28 | 1005.8 |
| 20260505184549 | 78 | 333 | 8.0 | 19.0 | 0.00 | 0.00 | 0.00 | 26 | 1006.0 |
| 20260505183051 | 78 | 172 | 6.0 | 18.0 | 0.00 | 0.00 | 0.00 | 29 | 1006.6 |
| 20260505181552 | 76 | 266 | 8.0 | 21.0 | 0.00 | 0.00 | 0.00 | 30 | 1007.0 |
| 20260505180053 | 76 | 105 | 7.0 | 19.0 | 0.00 | 0.00 | 0.00 | 31 | 1006.9 |
| 20260505174555 | 76 | 248 | 6.0 | 17.0 | 0.00 | 0.00 | 0.00 | 32 | 1007.2 |
| 20260505173049 | 75 | 255 | 5.0 | 18.0 | 0.00 | 0.00 | 0.00 | 33 | 1007.7 |
| 20260505171553 | 76 | 280 | 6.0 | 21.0 | 0.00 | 0.00 | 0.00 | 33 | 1007.5 |
| 20260505170054 | 76 | 158 | 6.0 | 15.0 | 0.00 | 0.00 | 0.00 | 33 | 1007.1 |
| 20260505164616 | 75 | 227 | 5.0 | 25.0 | 0.00 | 0.00 | 0.00 | 34 | 1007.3 |
| 20260505163053 | 75 | 115 | 9.0 | 20.0 | 0.00 | 0.00 | 0.00 | 34 | 1007.8 |
| 20260505161607 | 75 | 149 | 5.0 | 17.0 | 0.00 | 0.00 | 0.00 | 35 | 1008.1 |
| 20260505153054 | 73 | 160 | 7.0 | 20.0 | 0.00 | 0.00 | 0.00 | 36 | 1008.3 |
| 20260505151554 | 72 | 283 | 8.0 | 21.0 | 0.00 | 0.00 | 0.00 | 37 | 1008.6 |
| 20260505130113 | 65 | 240 | 5.0 | 22.0 | 0.00 | 0.00 | 0.00 | 46 | 1009.2 |
| 20260505124615 | 67 | 265 | 5.0 | 11.0 | 0.00 | 0.00 | 0.00 | 40 | 1009.2 |
| 20260505123115 | 67 | 186 | 2.0 | 7.0 | 0.00 | 0.00 | 0.00 | 44 | 1008.9 |
| 20260505121556 | 65 | 85 | 2.0 | 6.0 | 0.00 | 0.00 | 0.00 | 46 | 1009.1 |
| 20260505120109 | 63 | 123 | 1.0 | 6.0 | 0.00 | 0.00 | 0.00 | 47 | 1008.9 |
| 20260505114552 | 63 | 90 | 2.0 | 7.0 | 0.00 | 0.00 | 0.00 | 47 | 1008.9 |
| 20260505113107 | 62 | 93 | 3.0 | 7.0 | 0.00 | 0.00 | 0.00 | 48 | 1009.1 |
| 20260505111553 | 61 | 253 | 2.0 | 5.0 | 0.00 | 0.00 | 0.00 | 49 | 1009.0 |
| 20260505110111 | 62 | 0 | 0.0 | 3.0 | 0.00 | 0.00 | 0.00 | 47 | 1008.6 |
| 20260505101550 | 61 | 285 | 3.0 | 9.0 | 0.00 | 0.00 | 0.00 | 48 | 1008.3 |
| 20260505100053 | 61 | 84 | 2.0 | 5.0 | 0.00 | 0.00 | 0.00 | 48 | 1008.1 |
| 20260505094555 | 62 | 102 | 4.0 | 8.0 | 0.00 | 0.00 | 0.00 | 46 | 1008.0 |
| 20260505093102 | 62 | 273 | 2.0 | 9.0 | 0.00 | 0.00 | 0.00 | 47 | 1007.8 |
| 20260505091552 | 61 | 166 | 2.0 | 9.0 | 0.00 | 0.00 | 0.00 | 47 | 1007.7 |